Starlink 31513

operational
NORAD ID: 59529 Int'l Des: 2024-073 Owner: SPXS Country: US Constellation: starlink
LEOCIRCULAR

About Starlink 31513

Description loading...

Live Position

Loading 3D Globe...

Upcoming Passes

Altitude History

Altitude vs Time

uPlot chart will show altitude changes over time

Two-Line Element Set

1 59529U 24073U 25303.51173083 -.00000584 00000-0 -11728-4 0 9999
2 59529 43.0046 329.9484 0000488 48.1584 311.9310 15.27571007 86308
Epoch: Oct 30, 2025 • Age: 30 hours

Current Status

Altitude 485.9 km
Velocity 7.63 km/s
Sub-Earth Point 43.08°N, 99.29°E
Launch Date Apr 17, 2024
Age 1.5 years
Type internet

Technical Details

Classification Payload
Mass 730.00 kg
Dry Mass 700.00 kg
Total Mass 730.00 kg
Length 0.30 m
Diameter 4.10 m
Span 29.00 m
Shape Box + pan
Manufacturer SPXS
Bus Type Starlink V2M
Phase Status In Orbit
Owner/State SPXS/US

Large Constellations

Loading constellations...